| time (UTC) | temp F | wind direction | speed MPH | gust MPH | rain 1hr in | rain 24hr in | rain mn in | humidity % | barometer mb |
| 20260505170903 | 55 | 135 | 2.0 | 6.0 | 0.00 | 0.00 | 0.00 | 66 | 1015.9 |
| 20260505170403 | 54 | 64 | 2.0 | 6.0 | 0.00 | 0.00 | 0.00 | 66 | 1016.3 |
| 20260505165903 | 54 | 64 | 2.0 | 6.0 | 0.00 | 0.00 | 0.00 | 66 | 1016.3 |
| 20260505165403 | 54 | 64 | 2.0 | 6.0 | 0.00 | 0.00 | 0.00 | 66 | 1016.3 |
| 20260505164903 | 54 | 64 | 2.0 | 6.0 | 0.00 | 0.00 | 0.00 | 66 | 1016.3 |
| 20260505164403 | 54 | 64 | 2.0 | 6.0 | 0.00 | 0.00 | 0.00 | 66 | 1016.3 |
| 20260505163903 | 54 | 64 | 2.0 | 6.0 | 0.00 | 0.00 | 0.00 | 66 | 1016.3 |
| 20260505163403 | 54 | 64 | 2.0 | 6.0 | 0.00 | 0.00 | 0.00 | 66 | 1016.3 |
| 20260505162903 | 54 | 64 | 2.0 | 6.0 | 0.00 | 0.00 | 0.00 | 66 | 1016.3 |
| 20260505162403 | 54 | 64 | 2.0 | 6.0 | 0.00 | 0.00 | 0.00 | 66 | 1016.3 |
| 20260505161403 | 54 | 64 | 2.0 | 6.0 | 0.00 | 0.00 | 0.00 | 66 | 1016.3 |
| 20260505160903 | 54 | 65 | 2.0 | 6.0 | 0.00 | 0.00 | 0.00 | 66 | 1016.3 |
| 20260505160404 | 54 | 62 | 2.0 | 6.0 | 0.00 | 0.00 | 0.00 | 66 | 1016.3 |
| 20260505152403 | 53 | 28 | 2.0 | 9.0 | 0.00 | 0.00 | 0.00 | 72 | 1016.3 |
| 20260505151903 | 53 | 28 | 2.0 | 9.0 | 0.00 | 0.00 | 0.00 | 72 | 1016.3 |
| 20260505150903 | 53 | 28 | 2.0 | 9.0 | 0.00 | 0.00 | 0.00 | 72 | 1016.3 |
| 20260505140404 | 51 | 20 | 2.0 | 9.0 | 0.00 | 0.00 | 0.00 | 76 | 1016.6 |
| 20260505124903 | 52 | 357 | 3.0 | 9.0 | 0.00 | 0.00 | 0.00 | 75 | 1016.6 |
| 20260505124404 | 52 | 357 | 3.0 | 9.0 | 0.00 | 0.00 | 0.00 | 75 | 1016.6 |
| 20260505123903 | 52 | 357 | 3.0 | 9.0 | 0.00 | 0.00 | 0.00 | 75 | 1016.6 |
| 20260505122404 | 52 | 358 | 3.0 | 9.0 | 0.00 | 0.00 | 0.00 | 75 | 1016.6 |
| 20260505121404 | 52 | 1 | 3.0 | 9.0 | 0.00 | 0.00 | 0.00 | 75 | 1016.6 |
| 20260505120903 | 52 | 349 | 3.0 | 9.0 | 0.00 | 0.00 | 0.00 | 75 | 1016.6 |
| 20260505115903 | 48 | 326 | 3.0 | 7.0 | 0.00 | 0.00 | 0.00 | 85 | 1016.6 |
| 20260505115404 | 48 | 326 | 3.0 | 7.0 | 0.00 | 0.00 | 0.00 | 85 | 1016.6 |
| 20260505114904 | 48 | 326 | 3.0 | 7.0 | 0.00 | 0.00 | 0.00 | 85 | 1016.6 |
| 20260505114404 | 48 | 326 | 3.0 | 7.0 | 0.00 | 0.00 | 0.00 | 85 | 1016.6 |
| 20260505113901 | 48 | 326 | 3.0 | 7.0 | 0.00 | 0.00 | 0.00 | 85 | 1016.6 |
| 20260505113401 | 48 | 326 | 3.0 | 7.0 | 0.00 | 0.00 | 0.00 | 85 | 1016.6 |
| 20260505112900 | 48 | 326 | 3.0 | 7.0 | 0.00 | 0.00 | 0.00 | 85 | 1016.6 |
| 20260505112401 | 48 | 326 | 3.0 | 7.0 | 0.00 | 0.00 | 0.00 | 85 | 1016.6 |
| 20260505111900 | 48 | 326 | 3.0 | 7.0 | 0.00 | 0.00 | 0.00 | 85 | 1016.6 |
| 20260505111401 | 48 | 326 | 3.0 | 7.0 | 0.00 | 0.00 | 0.00 | 85 | 1016.6 |
| 20260505110901 | 48 | 326 | 3.0 | 7.0 | 0.00 | 0.00 | 0.00 | 85 | 1016.6 |
| 20260505110400 | 48 | 326 | 3.0 | 7.0 | 0.00 | 0.00 | 0.00 | 85 | 1016.6 |
| 20260505095901 | 48 | 326 | 3.0 | 7.0 | 0.00 | 0.00 | 0.00 | 85 | 1016.6 |
| 20260505094901 | 48 | 326 | 3.0 | 7.0 | 0.00 | 0.00 | 0.00 | 85 | 1016.6 |
| 20260505094400 | 48 | 326 | 3.0 | 7.0 | 0.00 | 0.00 | 0.00 | 85 | 1016.6 |
| 20260505093901 | 48 | 326 | 3.0 | 7.0 | 0.00 | 0.00 | 0.00 | 85 | 1016.6 |
| 20260505093400 | 48 | 326 | 3.0 | 7.0 | 0.00 | 0.00 | 0.00 | 85 | 1016.6 |
| 20260505092901 | 48 | 326 | 3.0 | 7.0 | 0.00 | 0.00 | 0.00 | 85 | 1016.6 |
| 20260505092401 | 48 | 326 | 3.0 | 7.0 | 0.00 | 0.00 | 0.00 | 85 | 1016.6 |
| 20260505091901 | 48 | 326 | 3.0 | 7.0 | 0.00 | 0.00 | 0.00 | 85 | 1016.6 |
| 20260505091401 | 48 | 326 | 3.0 | 7.0 | 0.00 | 0.00 | 0.00 | 85 | 1016.6 |
| 20260505090901 | 48 | 326 | 3.0 | 7.0 | 0.00 | 0.00 | 0.00 | 85 | 1016.6 |
| 20260505090401 | 48 | 326 | 3.0 | 7.0 | 0.00 | 0.00 | 0.00 | 85 | 1016.6 |
| 20260505085901 | 48 | 326 | 3.0 | 7.0 | 0.00 | 0.00 | 0.00 | 85 | 1016.6 |
| 20260505085401 | 48 | 326 | 3.0 | 7.0 | 0.00 | 0.00 | 0.00 | 85 | 1016.6 |
| 20260505084401 | 48 | 326 | 3.0 | 7.0 | 0.00 | 0.00 | 0.00 | 85 | 1016.6 |
| 20260505083901 | 48 | 326 | 3.0 | 7.0 | 0.00 | 0.00 | 0.00 | 85 | 1016.6 |
| 20260505083401 | 48 | 326 | 3.0 | 7.0 | 0.00 | 0.00 | 0.00 | 85 | 1016.6 |
| 20260505082901 | 48 | 326 | 3.0 | 7.0 | 0.00 | 0.00 | 0.00 | 85 | 1016.6 |
| 20260505082401 | 48 | 326 | 3.0 | 7.0 | 0.00 | 0.00 | 0.00 | 85 | 1016.6 |
| 20260505081401 | 48 | 326 | 3.0 | 7.0 | 0.00 | 0.00 | 0.00 | 85 | 1016.6 |
| 20260505080901 | 48 | 326 | 3.0 | 7.0 | 0.00 | 0.00 | 0.00 | 85 | 1016.6 |
| 20260505080401 | 48 | 326 | 3.0 | 7.0 | 0.00 | 0.00 | 0.00 | 85 | 1016.6 |
| 20260505075901 | 48 | 326 | 3.0 | 7.0 | 0.00 | 0.00 | 0.00 | 85 | 1016.6 |
| 20260505074401 | 48 | 326 | 3.0 | 7.0 | 0.00 | 0.00 | 0.00 | 85 | 1016.6 |
| 20260505073901 | 48 | 326 | 3.0 | 7.0 | 0.00 | 0.00 | 0.00 | 85 | 1016.6 |
| 20260505071901 | 48 | 326 | 3.0 | 7.0 | 0.00 | 0.00 | 0.00 | 85 | 1016.6 |
| 20260505071401 | 48 | 326 | 3.0 | 7.0 | 0.00 | 0.00 | 0.00 | 85 | 1016.6 |
| 20260505070901 | 48 | 326 | 3.0 | 7.0 | 0.00 | 0.00 | 0.00 | 85 | 1016.6 |
| 20260505070402 | 48 | 327 | 3.0 | 7.0 | 0.00 | 0.00 | 0.00 | 85 | 1016.6 |
| 20260505065401 | 48 | 329 | 3.0 | 7.0 | 0.00 | 0.00 | 0.00 | 85 | 1016.6 |
| 20260505064402 | 47 | 320 | 2.0 | 7.0 | 0.00 | 0.00 | 0.00 | 87 | 1016.6 |
| 20260505063402 | 47 | 320 | 2.0 | 7.0 | 0.00 | 0.00 | 0.00 | 87 | 1016.6 |
| 20260505062901 | 47 | 319 | 2.0 | 7.0 | 0.00 | 0.00 | 0.00 | 87 | 1016.6 |
| 20260505062402 | 47 | 319 | 2.0 | 7.0 | 0.00 | 0.00 | 0.00 | 87 | 1016.6 |
| 20260505061901 | 47 | 320 | 2.0 | 7.0 | 0.00 | 0.00 | 0.00 | 87 | 1016.6 |
| 20260505061402 | 47 | 319 | 2.0 | 7.0 | 0.00 | 0.00 | 0.00 | 87 | 1016.6 |
| 20260505060901 | 47 | 320 | 2.0 | 7.0 | 0.00 | 0.00 | 0.00 | 87 | 1016.6 |
| 20260505060401 | 47 | 319 | 2.0 | 7.0 | 0.00 | 0.00 | 0.00 | 87 | 1016.6 |
| 20260505055901 | 47 | 320 | 2.0 | 7.0 | 0.00 | 0.00 | 0.00 | 87 | 1016.6 |
| 20260505055401 | 47 | 319 | 2.0 | 7.0 | 0.00 | 0.00 | 0.00 | 87 | 1016.6 |
| 20260505054901 | 47 | 320 | 2.0 | 7.0 | 0.00 | 0.00 | 0.00 | 87 | 1016.6 |
| 20260505054401 | 47 | 319 | 2.0 | 7.0 | 0.00 | 0.00 | 0.00 | 87 | 1016.6 |
| 20260505053902 | 47 | 320 | 2.0 | 7.0 | 0.00 | 0.00 | 0.00 | 87 | 1016.6 |
| 20260505053402 | 47 | 319 | 2.0 | 7.0 | 0.00 | 0.00 | 0.00 | 87 | 1016.6 |
| 20260505052901 | 47 | 320 | 3.0 | 7.0 | 0.00 | 0.00 | 0.00 | 88 | 1016.3 |
| 20260505052401 | 47 | 321 | 3.0 | 7.0 | 0.00 | 0.00 | 0.00 | 88 | 1016.3 |
| 20260505051901 | 47 | 320 | 3.0 | 7.0 | 0.00 | 0.00 | 0.00 | 88 | 1016.3 |
| 20260505051401 | 47 | 321 | 3.0 | 7.0 | 0.00 | 0.00 | 0.00 | 88 | 1016.3 |
| 20260505050901 | 47 | 320 | 3.0 | 7.0 | 0.00 | 0.00 | 0.00 | 88 | 1016.3 |
| 20260505050401 | 47 | 320 | 3.0 | 7.0 | 0.00 | 0.00 | 0.00 | 88 | 1016.3 |
| 20260505041402 | 46 | 320 | 5.0 | 7.0 | 0.00 | 0.00 | 0.00 | 91 | 1016.6 |
| 20260505040901 | 46 | 320 | 5.0 | 7.0 | 0.00 | 0.00 | 0.00 | 91 | 1016.6 |
| 20260505035902 | 46 | 320 | 5.0 | 7.0 | 0.00 | 0.00 | 0.00 | 91 | 1016.6 |
| 20260505035402 | 46 | 320 | 5.0 | 7.0 | 0.00 | 0.00 | 0.00 | 91 | 1016.6 |
| 20260505034902 | 46 | 320 | 5.0 | 7.0 | 0.00 | 0.00 | 0.00 | 91 | 1016.6 |
| 20260505034402 | 46 | 320 | 5.0 | 7.0 | 0.00 | 0.00 | 0.00 | 91 | 1016.6 |
| 20260505033402 | 46 | 320 | 5.0 | 7.0 | 0.00 | 0.00 | 0.00 | 91 | 1016.6 |
| 20260505032901 | 46 | 320 | 5.0 | 7.0 | 0.00 | 0.00 | 0.00 | 91 | 1016.6 |
| 20260505032401 | 46 | 320 | 5.0 | 7.0 | 0.00 | 0.00 | 0.00 | 91 | 1016.6 |
| 20260505031902 | 46 | 320 | 5.0 | 7.0 | 0.00 | 0.00 | 0.00 | 91 | 1016.6 |
| 20260505031401 | 46 | 319 | 5.0 | 7.0 | 0.00 | 0.00 | 0.00 | 91 | 1016.6 |
| 20260505030901 | 46 | 322 | 5.0 | 7.0 | 0.00 | 0.00 | 0.00 | 91 | 1016.6 |
| 20260505030401 | 46 | 316 | 5.0 | 7.0 | 0.00 | 0.00 | 0.00 | 91 | 1016.6 |
| 20260505025901 | 46 | 344 | 1.0 | 2.0 | 0.00 | 0.00 | 0.00 | 91 | 1016.9 |
| 20260505025402 | 46 | 344 | 1.0 | 2.0 | 0.00 | 0.00 | 0.00 | 91 | 1016.9 |
| 20260505024901 | 46 | 344 | 1.0 | 2.0 | 0.00 | 0.00 | 0.00 | 91 | 1016.9 |
| 20260505024402 | 46 | 344 | 1.0 | 2.0 | 0.00 | 0.00 | 0.00 | 91 | 1016.9 |
| 20260505023902 | 46 | 344 | 1.0 | 2.0 | 0.00 | 0.00 | 0.00 | 91 | 1016.9 |
| 20260505023402 | 46 | 344 | 1.0 | 2.0 | 0.00 | 0.00 | 0.00 | 91 | 1016.9 |
| 20260505022902 | 46 | 344 | 1.0 | 2.0 | 0.00 | 0.00 | 0.00 | 91 | 1016.9 |
| 20260505022402 | 46 | 344 | 1.0 | 2.0 | 0.00 | 0.00 | 0.00 | 91 | 1016.9 |
| 20260505021902 | 46 | 344 | 1.0 | 2.0 | 0.00 | 0.00 | 0.00 | 91 | 1016.9 |
| 20260505021402 | 46 | 344 | 1.0 | 2.0 | 0.00 | 0.00 | 0.00 | 91 | 1016.9 |
| 20260505020902 | 46 | 344 | 1.0 | 2.0 | 0.00 | 0.00 | 0.00 | 91 | 1016.9 |
| 20260505020401 | 46 | 344 | 1.0 | 2.0 | 0.00 | 0.00 | 0.00 | 91 | 1016.9 |
| 20260505015902 | 46 | 344 | 1.0 | 2.0 | 0.00 | 0.00 | 0.00 | 91 | 1016.9 |
| 20260505015402 | 46 | 344 | 1.0 | 2.0 | 0.00 | 0.00 | 0.00 | 91 | 1016.9 |
| 20260505014901 | 46 | 344 | 1.0 | 2.0 | 0.00 | 0.00 | 0.00 | 91 | 1016.9 |
| 20260505014402 | 46 | 344 | 1.0 | 2.0 | 0.00 | 0.00 | 0.00 | 91 | 1016.9 |
| 20260505013902 | 46 | 344 | 1.0 | 2.0 | 0.00 | 0.00 | 0.00 | 91 | 1016.9 |
| 20260505013402 | 46 | 344 | 1.0 | 2.0 | 0.00 | 0.00 | 0.00 | 91 | 1016.9 |
| 20260505012402 | 46 | 344 | 1.0 | 2.0 | 0.00 | 0.00 | 0.00 | 91 | 1016.9 |
| 20260505011902 | 46 | 344 | 1.0 | 2.0 | 0.00 | 0.00 | 0.00 | 91 | 1016.9 |
| 20260505011402 | 46 | 344 | 1.0 | 2.0 | 0.00 | 0.00 | 0.00 | 91 | 1016.9 |
| 20260505010902 | 46 | 344 | 1.0 | 2.0 | 0.00 | 0.00 | 0.00 | 91 | 1016.9 |
| 20260505010402 | 46 | 344 | 1.0 | 2.0 | 0.00 | 0.00 | 0.00 | 91 | 1016.9 |
| 20260505005902 | 46 | 344 | 1.0 | 2.0 | 0.00 | 0.00 | 0.00 | 91 | 1016.9 |
| 20260505004902 | 46 | 344 | 1.0 | 2.0 | 0.00 | 0.00 | 0.00 | 91 | 1016.9 |
| 20260505004402 | 46 | 345 | 1.0 | 2.0 | 0.00 | 0.00 | 0.00 | 91 | 1016.9 |
| 20260505003902 | 46 | 343 | 1.0 | 2.0 | 0.00 | 0.00 | 0.00 | 91 | 1016.9 |
| 20260505003402 | 46 | 347 | 1.0 | 2.0 | 0.00 | 0.00 | 0.00 | 91 | 1016.9 |
| 20260505002902 | 46 | 340 | 1.0 | 2.0 | 0.00 | 0.00 | 0.00 | 91 | 1016.9 |
| 20260505002402 | 46 | 355 | 1.0 | 2.0 | 0.00 | 0.00 | 0.00 | 90 | 1017.3 |
| 20260505001902 | 46 | 355 | 1.0 | 2.0 | 0.00 | 0.00 | 0.00 | 90 | 1017.3 |
| 20260505001402 | 46 | 355 | 1.0 | 2.0 | 0.00 | 0.00 | 0.00 | 90 | 1017.3 |
| 20260505000902 | 46 | 355 | 1.0 | 2.0 | 0.00 | 0.00 | 0.00 | 90 | 1017.3 |
| 20260505000402 | 46 | 355 | 1.0 | 2.0 | 0.00 | 0.00 | 0.00 | 90 | 1017.3 |
| 20260504235902 | 46 | 355 | 1.0 | 2.0 | 0.00 | 0.00 | 0.00 | 90 | 1017.3 |
| 20260504235402 | 46 | 355 | 1.0 | 2.0 | 0.00 | 0.00 | 0.00 | 90 | 1017.3 |
| 20260504234902 | 46 | 355 | 1.0 | 2.0 | 0.00 | 0.00 | 0.00 | 90 | 1017.3 |
| 20260504234403 | 46 | 355 | 1.0 | 2.0 | 0.00 | 0.00 | 0.00 | 90 | 1017.3 |
| 20260504233902 | 46 | 355 | 1.0 | 2.0 | 0.00 | 0.00 | 0.00 | 90 | 1017.3 |
| 20260504233402 | 46 | 355 | 1.0 | 2.0 | 0.00 | 0.00 | 0.00 | 90 | 1017.3 |
| 20260504232902 | 46 | 355 | 1.0 | 2.0 | 0.00 | 0.00 | 0.00 | 90 | 1017.3 |
| 20260504231903 | 46 | 357 | 1.0 | 2.0 | 0.00 | 0.00 | 0.00 | 90 | 1017.3 |
| 20260504231403 | 46 | 351 | 1.0 | 2.0 | 0.00 | 0.00 | 0.00 | 90 | 1017.3 |
| 20260504230902 | 46 | 2 | 1.0 | 2.0 | 0.00 | 0.00 | 0.00 | 88 | 1017.3 |
| 20260504230403 | 46 | 2 | 1.0 | 2.0 | 0.00 | 0.00 | 0.00 | 88 | 1017.3 |
| 20260504225403 | 46 | 2 | 1.0 | 2.0 | 0.00 | 0.00 | 0.00 | 88 | 1017.3 |
| 20260504223902 | 46 | 2 | 1.0 | 2.0 | 0.00 | 0.00 | 0.00 | 88 | 1017.3 |
| 20260504223402 | 46 | 2 | 1.0 | 2.0 | 0.00 | 0.00 | 0.00 | 88 | 1017.3 |
| 20260504222903 | 46 | 2 | 1.0 | 2.0 | 0.00 | 0.00 | 0.00 | 88 | 1017.3 |
| 20260504222402 | 46 | 2 | 1.0 | 2.0 | 0.00 | 0.00 | 0.00 | 88 | 1017.3 |
| 20260504221402 | 46 | 3 | 1.0 | 2.0 | 0.00 | 0.00 | 0.00 | 88 | 1017.3 |
| 20260504220902 | 46 | 0 | 1.0 | 2.0 | 0.00 | 0.00 | 0.00 | 88 | 1017.3 |
| 20260504220402 | 46 | 6 | 1.0 | 2.0 | 0.00 | 0.00 | 0.00 | 88 | 1017.3 |
| 20260504215902 | 46 | 354 | 1.0 | 2.0 | 0.00 | 0.00 | 0.00 | 88 | 1017.3 |
| 20260504215402 | 48 | 21 | 1.0 | 2.0 | 0.00 | 0.00 | 0.00 | 86 | 1017.6 |
| 20260504214903 | 48 | 21 | 1.0 | 2.0 | 0.00 | 0.00 | 0.00 | 86 | 1017.6 |
| 20260504214402 | 48 | 21 | 1.0 | 2.0 | 0.00 | 0.00 | 0.00 | 86 | 1017.6 |
| 20260504213902 | 48 | 21 | 1.0 | 2.0 | 0.00 | 0.00 | 0.00 | 86 | 1017.6 |
| 20260504213402 | 48 | 21 | 1.0 | 2.0 | 0.00 | 0.00 | 0.00 | 86 | 1017.6 |
| 20260504212902 | 48 | 21 | 1.0 | 2.0 | 0.00 | 0.00 | 0.00 | 86 | 1017.6 |
| 20260504212402 | 48 | 21 | 1.0 | 2.0 | 0.00 | 0.00 | 0.00 | 86 | 1017.6 |
| 20260504211903 | 48 | 21 | 1.0 | 2.0 | 0.00 | 0.00 | 0.00 | 86 | 1017.6 |
| 20260504211402 | 48 | 21 | 1.0 | 2.0 | 0.00 | 0.00 | 0.00 | 86 | 1017.6 |
| 20260504210904 | 48 | 20 | 1.0 | 2.0 | 0.00 | 0.00 | 0.00 | 86 | 1017.6 |
| 20260504210402 | 48 | 24 | 1.0 | 2.0 | 0.00 | 0.00 | 0.00 | 86 | 1017.6 |
| 20260504205903 | 48 | 14 | 1.0 | 2.0 | 0.00 | 0.00 | 0.00 | 86 | 1017.6 |
| 20260504205402 | 48 | 35 | 1.0 | 2.0 | 0.00 | 0.00 | 0.00 | 86 | 1017.6 |
| 20260504204903 | 48 | 357 | 1.0 | 2.0 | 0.00 | 0.00 | 0.00 | 86 | 1017.6 |
| 20260504204402 | 51 | 71 | 1.0 | 2.0 | 0.00 | 0.00 | 0.00 | 81 | 1016.9 |
| 20260504203904 | 51 | 71 | 1.0 | 2.0 | 0.00 | 0.00 | 0.00 | 81 | 1016.9 |
| 20260504203403 | 51 | 71 | 1.0 | 2.0 | 0.00 | 0.00 | 0.00 | 81 | 1016.9 |
| 20260504202903 | 51 | 71 | 1.0 | 2.0 | 0.00 | 0.00 | 0.00 | 81 | 1016.9 |
| 20260504202402 | 51 | 71 | 1.0 | 2.0 | 0.00 | 0.00 | 0.00 | 81 | 1016.9 |
| 20260504201403 | 51 | 71 | 1.0 | 2.0 | 0.00 | 0.00 | 0.00 | 81 | 1016.9 |
| 20260504200903 | 51 | 71 | 1.0 | 2.0 | 0.00 | 0.00 | 0.00 | 81 | 1016.9 |
| 20260504200402 | 51 | 71 | 1.0 | 2.0 | 0.00 | 0.00 | 0.00 | 81 | 1016.9 |
| 20260504195903 | 51 | 71 | 1.0 | 2.0 | 0.00 | 0.00 | 0.00 | 81 | 1016.9 |
| 20260504195403 | 51 | 71 | 1.0 | 2.0 | 0.00 | 0.00 | 0.00 | 81 | 1016.9 |
| 20260504194902 | 51 | 70 | 1.0 | 2.0 | 0.00 | 0.00 | 0.00 | 81 | 1016.9 |
| 20260504194403 | 51 | 73 | 1.0 | 2.0 | 0.00 | 0.00 | 0.00 | 81 | 1016.9 |
| 20260504193903 | 51 | 67 | 1.0 | 2.0 | 0.00 | 0.00 | 0.00 | 81 | 1016.9 |
| 20260504193403 | 51 | 79 | 1.0 | 2.0 | 0.00 | 0.00 | 0.00 | 81 | 1016.9 |
| 20260504192902 | 51 | 56 | 1.0 | 8.0 | 0.00 | 0.00 | 0.00 | 81 | 1016.9 |
| 20260504192413 | 51 | 104 | 1.0 | 8.0 | 0.00 | 0.00 | 0.00 | 81 | 1016.9 |
| 20260504191903 | 51 | 104 | 1.0 | 8.0 | 0.00 | 0.00 | 0.00 | 81 | 1016.9 |
| 20260504191404 | 51 | 104 | 1.0 | 8.0 | 0.00 | 0.00 | 0.00 | 81 | 1016.9 |
| 20260504190903 | 51 | 104 | 1.0 | 8.0 | 0.00 | 0.00 | 0.00 | 81 | 1016.9 |
| 20260504190403 | 51 | 104 | 1.0 | 8.0 | 0.00 | 0.00 | 0.00 | 81 | 1016.9 |
| 20260504185903 | 51 | 104 | 1.0 | 8.0 | 0.00 | 0.00 | 0.00 | 81 | 1016.9 |
| 20260504184902 | 51 | 105 | 1.0 | 8.0 | 0.00 | 0.00 | 0.00 | 81 | 1016.9 |
| 20260504184403 | 52 | 101 | 1.0 | 8.0 | 0.00 | 0.00 | 0.00 | 79 | 1016.9 |
| 20260504183903 | 52 | 101 | 1.0 | 8.0 | 0.00 | 0.00 | 0.00 | 79 | 1016.9 |
| 20260504183402 | 52 | 101 | 1.0 | 8.0 | 0.00 | 0.00 | 0.00 | 79 | 1016.9 |
| 20260504182403 | 52 | 101 | 1.0 | 8.0 | 0.00 | 0.00 | 0.00 | 79 | 1016.9 |
| 20260504181903 | 52 | 101 | 1.0 | 8.0 | 0.00 | 0.00 | 0.00 | 79 | 1016.9 |
| 20260504181403 | 52 | 101 | 1.0 | 8.0 | 0.00 | 0.00 | 0.00 | 79 | 1016.9 |
| 20260504180402 | 52 | 101 | 1.0 | 8.0 | 0.00 | 0.00 | 0.00 | 79 | 1016.9 |
| 20260504175903 | 52 | 102 | 1.0 | 8.0 | 0.00 | 0.00 | 0.00 | 79 | 1016.9 |
| 20260504175403 | 52 | 100 | 1.0 | 8.0 | 0.00 | 0.00 | 0.00 | 79 | 1016.9 |
| 20260504174902 | 52 | 104 | 1.0 | 8.0 | 0.00 | 0.00 | 0.00 | 79 | 1016.9 |
| 20260504174402 | 52 | 95 | 1.0 | 8.0 | 0.00 | 0.00 | 0.00 | 79 | 1016.9 |
| 20260504173903 | 52 | 112 | 1.0 | 8.0 | 0.00 | 0.00 | 0.00 | 79 | 1016.9 |
| 20260504173403 | 55 | 88 | 2.0 | 8.0 | 0.00 | 0.00 | 0.00 | 77 | 1016.9 |
| 20260504172403 | 55 | 88 | 2.0 | 8.0 | 0.00 | 0.00 | 0.00 | 77 | 1016.9 |
| 20260504171903 | 55 | 88 | 2.0 | 8.0 | 0.00 | 0.00 | 0.00 | 77 | 1016.9 |
| 20260504171404 | 55 | 88 | 2.0 | 8.0 | 0.00 | 0.00 | 0.00 | 77 | 1016.9 |